CW6318 Weather Reports


Display with metric or nautical units.
time (UTC)temp
F
wind
direction
speed
MPH
gust
MPH
rain 1hr
in
rain 24hr
in
rain mn
in
humidity
%
barometer
mb
20260831060001 54 239 0.0 0.0 0.00 0.00 0.00 77 999.7
20260831054959 54 239 0.0 1.0 0.00 0.00 0.00 77 999.8
20260831054501 54 240 0.0 0.0 0.00 0.00 0.00 77 999.8
20260831053500 54 239 0.0 0.0 0.00 0.00 0.00 76 999.9
20260831053000 54 239 0.0 0.0 0.00 0.00 0.00 76 1000.1
20260831052001 55 240 0.0 0.0 0.00 0.00 0.00 75 1000.2
20260831051000 55 239 0.0 0.0 0.00 0.00 0.00 74 1000.3
20260831050459 55 240 0.0 0.0 0.00 0.00 0.00 73 1000.4
20260831050000 56 239 0.0 0.0 0.00 0.00 0.00 73 1000.4
20260831045500 56 239 0.0 0.0 0.00 0.00 0.00 73 1000.4
20260831045000 56 240 0.0 0.0 0.00 0.00 0.00 72 1000.5
20260831043501 57 239 0.0 0.0 0.00 0.00 0.00 71 1000.6
20260831043000 57 240 0.0 0.0 0.00 0.00 0.00 71 1000.6
20260831042501 58 239 0.0 0.0 0.00 0.00 0.00 70 1000.7
20260831041000 59 240 0.0 0.0 0.00 0.00 0.00 68 1000.6
20260831040500 59 240 0.0 0.0 0.00 0.00 0.00 68 1000.7
20260831040003 59 240 0.0 0.0 0.00 0.00 0.00 67 1000.7
20260831035500 60 240 0.0 0.0 0.00 0.00 0.00 67 1000.7
20260831035000 60 240 0.0 0.0 0.00 0.00 0.00 66 1000.6
20260831034500 60 240 0.0 0.0 0.00 0.00 0.00 66 1000.7
20260831034000 61 240 0.0 0.0 0.00 0.00 0.00 65 1000.6
20260831033500 61 240 0.0 0.0 0.00 0.00 0.00 64 1000.6
20260831033000 62 239 0.0 0.0 0.00 0.00 0.00 64 1000.6
20260831032000 62 240 0.0 0.0 0.00 0.00 0.00 62 1000.5
20260831031459 63 239 0.0 0.0 0.00 0.00 0.00 62 1000.5
20260831031000 63 240 0.0 0.0 0.00 0.00 0.00 61 1000.5
20260831030502 64 239 0.0 0.0 0.00 0.00 0.00 60 1000.4
20260831025500 64 240 0.0 0.0 0.00 0.00 0.00 59 1000.4
20260831024500 65 239 0.0 0.0 0.00 0.00 0.00 58 1000.4
20260831024001 65 240 0.0 0.0 0.00 0.00 0.00 58 1000.4
20260831023501 66 239 0.0 0.0 0.00 0.00 0.00 57 1000.4
20260831023000 66 240 0.0 0.0 0.00 0.00 0.00 57 1000.4
20260831022500 66 240 0.0 0.0 0.00 0.00 0.00 57 1000.4
20260831022000 66 240 0.0 0.0 0.00 0.00 0.00 56 1000.4
20260831021500 67 239 0.0 0.0 0.00 0.00 0.00 55 1000.4
20260831021000 67 240 0.0 0.0 0.00 0.00 0.00 55 1000.5
20260831020500 67 239 0.0 0.0 0.00 0.00 0.00 55 1000.5
20260831015000 68 240 0.0 2.0 0.00 0.00 0.00 53 1000.5
20260831014501 68 240 0.0 2.0 0.00 0.00 0.00 52 1000.5
20260831014000 68 240 0.0 2.0 0.00 0.00 0.00 52 1000.5
20260831013001 68 240 0.0 1.0 0.00 0.00 0.00 52 1000.6
20260831012501 68 239 0.0 1.0 0.00 0.00 0.00 51 1000.6
20260831012000 68 240 0.0 3.0 0.00 0.00 0.00 50 1000.6
20260831011502 69 239 0.0 3.0 0.00 0.00 0.00 50 1000.7
20260831011003 69 238 0.0 1.0 0.00 0.00 0.00 50 1000.7
20260831010003 68 242 0.0 3.0 0.00 0.00 0.00 51 1000.8
20260831005500 69 240 1.0 3.0 0.00 0.00 0.00 49 1000.9
20260831005002 69 246 1.0 3.0 0.00 0.00 0.00 49 1000.8
20260831004502 69 252 0.0 2.0 0.00 0.00 0.00 49 1000.9
20260831003501 69 211 0.0 4.0 0.00 0.00 0.00 49 1000.9
20260831003001 69 223 1.0 5.0 0.00 0.00 0.00 49 1000.9
20260831002500 69 215 1.0 5.0 0.00 0.00 0.00 48 1001.0
20260831002000 70 259 0.0 4.0 0.00 0.00 0.00 47 1001.0
20260831001002 70 294 1.0 8.0 0.00 0.00 0.00 47 1001.0
20260830235959 70 233 0.0 5.0 0.00 0.00 0.00 46 1001.0
20260830235501 70 276 0.0 4.0 0.00 0.00 0.00 47 1001.1
20260830235002 70 227 1.0 4.0 0.00 0.00 0.00 47 1001.0
20260830234501 70 225 2.0 4.0 0.00 0.00 0.00 47 1001.1
20260830234001 70 237 0.0 4.0 0.00 0.00 0.00 47 1001.1
20260830233500 70 226 4.0 5.0 0.00 0.00 0.00 47 1001.1
20260830233001 70 248 5.0 5.0 0.00 0.00 0.00 46 1001.1
20260830232500 71 221 0.0 4.0 0.00 0.00 0.00 46 1001.1
20260830232000 71 308 0.0 3.0 0.00 0.00 0.00 46 1001.3
20260830231500 70 232 0.0 3.0 0.00 0.00 0.00 47 1001.4
20260830231001 70 238 0.0 5.0 0.00 0.00 0.00 47 1001.5
20260830230500 70 269 0.0 6.0 0.00 0.00 0.00 48 1001.5
20260830230003 70 211 4.0 7.0 0.00 0.00 0.00 47 1001.5
20260830225001 70 253 0.0 3.0 0.00 0.00 0.00 47 1001.6
20260830224500 71 215 0.0 3.0 0.00 0.00 0.00 46 1001.6
20260830223500 69 244 0.0 6.0 0.00 0.00 0.00 47 1001.8
20260830223000 70 239 1.0 5.0 0.00 0.00 0.00 46 1001.8
20260830222459 69 246 2.0 6.0 0.00 0.00 0.00 47 1001.9
20260830222001 69 221 2.0 7.0 0.00 0.00 0.00 46 1002.0
20260830221500 70 251 2.0 7.0 0.00 0.00 0.00 45 1002.1
20260830221000 69 288 1.0 4.0 0.00 0.00 0.00 47 1002.2
20260830220000 71 236 0.0 6.0 0.00 0.00 0.00 46 1002.2
20260830215501 70 228 2.0 7.0 0.00 0.00 0.00 48 1002.3
20260830215000 69 295 0.0 7.0 0.00 0.00 0.00 50 1002.4
20260830214508 70 225 2.0 6.0 0.00 0.00 0.00 48 1002.4
20260830213500 68 219 0.0 6.0 0.00 0.00 0.00 50 1002.5
20260830213000 68 231 0.0 5.0 0.00 0.00 0.00 49 1002.6
20260830212501 69 225 3.0 5.0 0.00 0.00 0.00 48 1002.7
20260830212000 69 236 0.0 5.0 0.00 0.00 0.00 50 1002.8
20260830211500 69 238 3.0 4.0 0.00 0.00 0.00 50 1002.8
20260830211001 69 231 2.0 4.0 0.00 0.00 0.00 50 1002.8
20260830210500 69 220 3.0 5.0 0.00 0.00 0.00 49 1002.8
20260830210001 69 241 0.0 7.0 0.00 0.00 0.00 50 1002.9
20260830205001 68 248 2.0 8.0 0.00 0.00 0.00 52 1002.9
20260830204001 69 231 1.0 4.0 0.00 0.00 0.00 52 1003.0
20260830203501 68 221 0.0 6.0 0.00 0.00 0.00 52 1003.0
20260830203000 68 254 0.0 6.0 0.00 0.00 0.00 51 1003.0
20260830202500 69 229 4.0 6.0 0.00 0.00 0.00 52 1003.1
20260830202001 69 308 1.0 5.0 0.00 0.00 0.00 50 1003.2
20260830201500 69 249 2.0 6.0 0.00 0.00 0.00 53 1003.3
20260830201000 68 233 0.0 6.0 0.00 0.00 0.00 53 1003.3
20260830200001 67 299 2.0 5.0 0.00 0.00 0.00 54 1003.3
20260830195501 66 232 2.0 6.0 0.00 0.00 0.00 55 1003.4
20260830195001 66 227 1.0 6.0 0.00 0.00 0.00 54 1003.4
20260830194004 67 263 0.0 6.0 0.00 0.00 0.00 55 1003.4
20260830193500 67 233 0.0 5.0 0.00 0.00 0.00 54 1003.5
20260830193000 67 246 3.0 6.0 0.00 0.00 0.00 54 1003.4
20260830192501 67 235 4.0 5.0 0.00 0.00 0.00 53 1003.5
20260830192000 67 243 0.0 4.0 0.00 0.00 0.00 54 1003.5
20260830191502 67 241 0.0 5.0 0.00 0.00 0.00 54 1003.6
20260830191002 67 269 0.0 5.0 0.00 0.00 0.00 56 1003.6
20260830190501 66 273 0.0 5.0 0.00 0.00 0.00 55 1003.7
20260830185501 66 242 2.0 3.0 0.00 0.00 0.00 58 1003.6
20260830185001 65 241 0.0 5.0 0.00 0.00 0.00 56 1003.7
20260830184001 65 250 0.0 3.0 0.00 0.00 0.00 57 1003.8
20260830183502 65 261 2.0 6.0 0.00 0.00 0.00 59 1004.0
20260830183003 64 246 5.0 6.0 0.00 0.00 0.00 60 1004.1
20260830182506 64 245 0.0 4.0 0.00 0.00 0.00 60 1004.1
20260830182002 64 240 0.0 4.0 0.00 0.00 0.00 60 1004.0
20260830181501 63 248 2.0 4.0 0.00 0.00 0.00 60 1004.1
20260830181006 63 330 0.0 4.0 0.00 0.00 0.00 60 1004.1
20260830180502 63 265 1.0 4.0 0.00 0.00 0.00 64 1004.2
20260830180001 62 270 1.0 3.0 0.00 0.00 0.00 64 1004.1
20260830175513 62 240 0.0 3.0 0.00 0.00 0.00 62 1004.1
20260830175003 62 250 0.0 3.0 0.00 0.00 0.00 62 1004.1
20260830174002 62 231 0.0 4.0 0.00 0.00 0.00 63 1004.2
20260830172502 60 238 0.0 1.0 0.00 0.00 0.00 65 1004.2
20260830171501 60 238 0.0 2.0 0.00 0.00 0.00 64 1004.2
20260830171001 60 238 1.0 2.0 0.00 0.00 0.00 66 1004.2
20260830170001 59 230 0.0 1.0 0.00 0.00 0.00 70 1004.2
20260830165500 59 230 0.0 1.0 0.00 0.00 0.00 68 1004.2
20260830164502 58 229 0.0 1.0 0.00 0.00 0.00 70 1004.3
20260830163501 57 230 0.0 0.0 0.00 0.00 0.00 74 1004.6
20260830163012 57 229 0.0 0.0 0.00 0.00 0.00 76 1004.6
20260830161501 56 230 0.0 0.0 0.00 0.00 0.00 77 1004.7
20260830161000 55 230 0.0 0.0 0.00 0.00 0.00 77 1004.7
20260830160501 55 229 0.0 0.0 0.00 0.00 0.00 77 1004.7
20260830160004 54 229 0.0 0.0 0.00 0.00 0.00 77 1004.7
20260830155500 53 230 0.0 0.0 0.00 0.00 0.00 76 1004.8
20260830154501 51 229 0.0 0.0 0.00 0.00 0.00 73 1005.0
20260830154000 51 229 0.0 0.0 0.00 0.00 0.00 73 1004.9
20260830153501 50 230 0.0 0.0 0.00 0.00 0.00 72 1005.0
20260830152501 50 230 0.0 0.0 0.00 0.00 0.00 71 1005.1
20260830152003 50 230 0.0 0.0 0.00 0.00 0.00 71 1005.1
20260830151501 50 230 0.0 0.0 0.00 0.00 0.00 70 1005.2
20260830151000 49 229 0.0 0.0 0.00 0.00 0.00 70 1005.2
20260830150510 49 230 0.0 0.0 0.00 0.00 0.00 71 1005.2
20260830145500 49 230 0.0 0.0 0.00 0.04 0.00 70 1005.2
20260830145000 49 230 0.0 0.0 0.00 0.04 0.00 70 1005.3
20260830144002 49 229 0.0 0.0 0.00 0.04 0.00 71 1005.2
20260830143501 49 230 0.0 0.0 0.00 0.04 0.00 71 1005.3
20260830142000 48 229 0.0 0.0 0.00 0.04 0.00 72 1005.2
20260830141506 48 230 0.0 0.0 0.00 0.04 0.00 72 1005.1
20260830141000 48 230 0.0 0.0 0.00 0.04 0.00 73 1005.1
20260830140506 48 230 0.0 0.0 0.00 0.04 0.00 73 1005.0
20260830135009 49 230 0.0 0.0 0.00 0.04 0.00 74 1005.0
20260830134000 49 229 0.0 0.0 0.00 0.04 0.00 74 1004.9
20260830133500 49 229 0.0 0.0 0.00 0.04 0.00 74 1004.8
20260830132507 49 229 0.0 0.0 0.00 0.04 0.00 75 1004.7
20260830132000 49 230 0.0 0.0 0.00 0.04 0.00 75 1004.7
20260830131459 49 230 0.0 0.0 0.00 0.04 0.00 75 1004.6
20260830131001 49 230 0.0 0.0 0.00 0.04 0.00 75 1004.6
20260830130501 49 230 0.0 0.0 0.00 0.04 0.00 75 1004.5
20260830130000 49 230 0.0 0.0 0.00 0.04 0.00 75 1004.6
20260830125500 49 229 0.0 0.0 0.00 0.04 0.00 75 1004.5
20260830125000 49 229 0.0 0.0 0.00 0.04 0.00 75 1004.4
20260830124000 49 230 0.0 0.0 0.00 0.04 0.00 76 1004.3
20260830123000 49 230 0.0 0.0 0.00 0.04 0.00 76 1004.4
20260830122459 49 230 0.0 0.0 0.00 0.04 0.00 76 1004.4
20260830121959 49 230 0.0 0.0 0.00 0.04 0.00 76 1004.5
20260830121500 49 230 0.0 0.0 0.00 0.04 0.00 76 1004.5
20260830120959 49 230 0.0 0.0 0.00 0.04 0.00 76 1004.6
20260830120501 49 229 0.0 0.0 0.00 0.04 0.00 76 1004.6
20260830115500 50 230 0.0 0.0 0.00 0.04 0.00 76 1004.6
20260830114959 50 230 0.0 0.0 0.00 0.04 0.00 76 1004.6
20260830114501 50 229 0.0 0.0 0.00 0.04 0.00 76 1004.5
20260830113959 50 230 0.0 0.0 0.00 0.04 0.00 76 1004.5
20260830113500 50 230 0.0 0.0 0.00 0.04 0.00 76 1004.4
20260830112959 50 230 0.0 0.0 0.00 0.04 0.00 76 1004.4
20260830112000 50 229 0.0 0.0 0.00 0.04 0.00 76 1004.4
20260830111500 50 230 0.0 0.0 0.00 0.04 0.00 76 1004.5
20260830111000 50 229 0.0 0.0 0.00 0.04 0.00 76 1004.4
20260830110500 50 229 0.0 0.0 0.00 0.04 0.00 76 1004.4
20260830110000 50 230 0.0 0.0 0.00 0.04 0.00 76 1004.4
20260830105500 50 230 0.0 0.0 0.00 0.04 0.00 76 1004.3
20260830103959 51 230 0.0 0.0 0.00 0.04 0.00 76 1004.4
20260830103000 51 229 0.0 0.0 0.00 0.04 0.00 76 1004.4
20260830102500 51 230 0.0 0.0 0.00 0.04 0.00 76 1004.4
20260830101959 51 230 0.0 0.0 0.00 0.04 0.00 76 1004.3
20260830101500 51 230 0.0 0.0 0.00 0.04 0.00 76 1004.3
20260830101000 51 230 0.0 0.0 0.00 0.04 0.00 76 1004.3
20260830100000 51 230 0.0 0.0 0.00 0.04 0.00 76 1004.3
20260830095505 51 230 0.0 0.0 0.00 0.04 0.00 76 1004.3
20260830094500 51 230 0.0 0.0 0.00 0.04 0.00 76 1004.2
20260830093959 51 229 0.0 0.0 0.00 0.04 0.00 76 1004.2
20260830093500 51 230 0.0 0.0 0.00 0.04 0.00 76 1004.3
20260830093000 51 230 0.0 0.0 0.00 0.04 0.00 76 1004.3
20260830092000 51 229 0.0 0.0 0.00 0.04 0.00 76 1004.3
20260830091501 51 229 0.0 0.0 0.00 0.04 0.00 76 1004.3
20260830090958 51 230 0.0 0.0 0.00 0.04 0.00 76 1004.4
20260830090500 51 229 0.0 0.0 0.00 0.04 0.00 76 1004.4
20260830090002 51 230 0.0 0.0 0.00 0.04 0.00 76 1004.3
20260830085459 51 229 0.0 0.0 0.00 0.04 0.00 76 1004.3
20260830085001 51 230 0.0 0.0 0.00 0.04 0.00 76 1004.3
20260830084459 51 230 0.0 0.0 0.00 0.04 0.00 76 1004.3
20260830084003 51 230 0.0 0.0 0.00 0.04 0.00 76 1004.3
20260830083502 51 229 0.0 0.0 0.00 0.04 0.00 76 1004.3
20260830083000 51 229 0.0 0.0 0.00 0.04 0.00 76 1004.5
20260830082500 51 229 0.0 0.0 0.00 0.04 0.00 76 1004.4
20260830081959 51 230 0.0 0.0 0.00 0.04 0.00 76 1004.4
20260830081502 51 230 0.0 0.0 0.00 0.04 0.00 77 1004.4
20260830081001 51 230 0.0 0.0 0.00 0.04 0.00 77 1004.5
20260830080517 51 229 0.0 0.0 0.00 0.04 0.00 77 1004.4
20260830080000 51 229 0.0 0.0 0.00 0.04 0.00 77 1004.5
20260830075504 51 230 0.0 0.0 0.00 0.04 0.00 78 1004.6
20260830075001 51 230 0.0 0.0 0.00 0.04 0.00 78 1004.6
20260830074502 51 230 0.0 0.0 0.00 0.04 0.00 78 1004.6
20260830074000 51 229 0.0 0.0 0.00 0.04 0.00 78 1004.6
20260830073500 51 230 0.0 0.0 0.00 0.04 0.00 78 1004.6
20260830073000 51 230 0.0 0.0 0.00 0.04 0.00 78 1004.5
20260830072500 51 229 0.0 0.0 0.00 0.04 0.00 78 1004.5
20260830072000 51 229 0.0 0.0 0.00 0.04 0.00 78 1004.5
20260830071000 52 229 0.0 0.0 0.00 0.04 0.00 78 1004.5
20260830070459 52 230 0.0 0.0 0.00 0.04 0.00 77 1004.6
20260830065501 53 230 0.0 0.0 0.00 0.04 0.04 77 1004.5
20260830065000 53 230 0.0 0.0 0.00 0.04 0.04 77 1004.6
20260830064500 53 230 0.0 0.0 0.00 0.04 0.04 77 1004.6
20260830064003 53 230 0.0 0.0 0.00 0.04 0.04 77 1004.4
20260830063459 54 230 0.0 0.0 0.00 0.04 0.04 77 1004.5
20260830062502 54 230 0.0 0.0 0.00 0.04 0.04 77 1004.5
20260830062000 54 229 0.0 0.0 0.00 0.04 0.04 77 1004.5
20260830061501 55 229 0.0 0.0 0.00 0.04 0.04 77 1004.4
20260830061002 55 230 0.0 0.0 0.00 0.04 0.04 77 1004.5